This is the latest recevied weather packets stored in our database for station/object K6LCM-13. If no packets are shown the sender has not sent any weather packets the latest 1 day(s).
| Time | Temp. | Humidity | Pressure | Rain* | Wind** | Luminosity | Snow |
|---|---|---|---|---|---|---|---|
| 1778050880 | 13.89° C | 90% | 1016.6 hPa | 0 mm | - | - | - |
| 1778049259 | 13.89° C | 89% | 1016.3 hPa | 0 mm | - | - | - |
| 1778048179 | 13.89° C | 88% | 1016.1 hPa | 0 mm | - | - | - |
| 1778047099 | 14.44° C | 87% | 1016.2 hPa | 0 mm | - | - | - |
| 1778046559 | 14.44° C | 86% | 1016.2 hPa | 0 mm | - | - | - |
| 1778045863 | 14.44° C | 86% | 1016.1 hPa | 0 mm | - | - | - |
| 1778045323 | 14.44° C | 85% | 1015.9 hPa | 0 mm | - | - | - |
| 1778044783 | 15° C | 83% | 1015.8 hPa | 0 mm | - | - | - |
| 1778044243 | 15° C | 81% | 1015.7 hPa | 0 mm | - | - | - |
| 1778043703 | 15.56° C | 78% | 1015.5 hPa | 0 mm | - | - | - |
| 1778043163 | 15.56° C | 76% | 1015.4 hPa | 0 mm | - | - | - |
| 1778042622 | 15.56° C | 74% | 1015.3 hPa | 0 mm | - | - | - |
| 1778041543 | 16.67° C | 69% | 1015.2 hPa | 0 mm | - | - | - |
| 1778040463 | 17.22° C | 69% | 1014.7 hPa | 0 mm | - | - | - |
| 1778039383 | 17.22° C | 68% | 1014.5 hPa | 0 mm | - | - | - |
| 1778038843 | 17.22° C | 67% | 1014.4 hPa | 0 mm | - | - | - |
| 1778037763 | 17.78° C | 66% | 1014.2 hPa | 0 mm | - | - | - |
| 1778037223 | 17.78° C | 66% | 1014 hPa | 0 mm | - | - | - |
| 1778036132 | 18.33° C | 64% | 1013.7 hPa | 0 mm | - | - | - |
| 1778035593 | 18.33° C | 64% | 1013.7 hPa | 0 mm | - | - | - |
| 1778035052 | 18.33° C | 65% | 1013.7 hPa | 0 mm | - | - | - |
| 1778034512 | 17.22° C | 68% | 1013.5 hPa | 0 mm | - | - | - |
| 1778033432 | 17.22° C | 71% | 1013.4 hPa | 0 mm | - | - | - |
| 1778032893 | 17.22° C | 70% | 1013.5 hPa | 0 mm | - | - | - |
| 1778032353 | 17.22° C | 70% | 1013.3 hPa | 0 mm | - | - | - |
* Rain latest hour (hover to see other rain measurements)
** Current wind speed in m/s (hover to see current wind gust speed)